Notices

What's New in latest Release from April 7th, 2021:

- Updated Glossary, including Speed of Maximum Gust, and Total Hourly Precipitation

- Updated national and regional climate services offices contacts and prices information

- Addition of station inventory lists for 1981-2010, 1971-2000, and 1961-1990 Normals.

If you haven't already, please take our survey and provide feedback about our website: https://eccc.sondage-survey.ca/f/LanguageSelection.aspx?s=442ca660-fcf1-47c0-95a9-59707d6fd709

Hourly Data Report for August 12, 2020

TORONTO CITY
ONTARIO
Current Station Operator: ECCC - MSC

43°40'00.000" N
79°24'00.000" W
112.50 m
6158355
71508
XTO

Download Data

Hourly Data (August 2020)
Hourly Data Report for August 12, 2020
TIME
LST
Temp Definition
°C
Dew Point Definition
°C
Rel Hum Definition
%
Precip. Amount Definition
mm

Wind Dir Definition
10's deg

Wind Spd Definition
km/h
Visibility Definition
km
Stn Press Definition
kPa
Hmdx Definition


Wind Chill Definition


Weather Definition


00:00 19.1 10.5 58 0.0       100.21     LegendNANA
01:00 18.2 10.6 61 0.0       100.27     LegendNANA
02:00 17.6 10.9 65 0.0       100.32     LegendNANA
03:00 17.8 10.6 63 0.0       100.37     LegendNANA
04:00 17.2 11.0 67 0.0       100.39     LegendNANA
05:00 16.7 11.1 70 0.0       100.42     LegendNANA
06:00 16.8 11.5 71 0.0       100.49     LegendNANA
07:00 20.1 10.9 55 0.0       100.55     LegendNANA
08:00 22.7 10.3 45 0.0       100.59     LegendNANA
09:00 25.0 10.3 39 0.0       100.59 26   LegendNANA
10:00 25.8 10.1 37 0.0       100.61 27   LegendNANA
11:00 25.6 10.0 37 0.0       100.60 27   LegendNANA
12:00 26.8 8.9 32 0.0       100.58 28   LegendNANA
13:00 27.8 9.2 31 0.0       100.60 29   LegendNANA
14:00 28.6 9.2 30 0.0       100.55 30   LegendNANA
15:00 29.4 8.5 27 0.0       100.50 30   LegendNANA
16:00 28.8 8.0 27 0.0       100.46 29   LegendNANA
17:00 27.9 7.6 28 0.0       100.48 28   LegendNANA
18:00 27.0 6.2 26 0.0       100.48 27   LegendNANA
19:00 25.1 7.5 32 0.0       100.53 25   LegendNANA
20:00 24.2 7.1 33 0.0       100.56     LegendNANA
21:00 22.6 10.1 45 0.0       100.58     LegendNANA
22:00 22.2 12.6 54 0.0       100.57 25   LegendNANA
23:00 22.4 14.2 60 0.0       100.60 26   LegendNANA

Notes on Data Quality.

Legend

  • E = Estimated
  • M = Missing
  • NA = Not Available*
  • [empty] = Indicates an unobserved value
Date modified: